Location: Ethel Rock
(53.4667°N, 4.5667°W)
Time: 05:26:44
(UTC+00:00)

Cosmos 2369 - Pass Details

Date: 24 October 2020
Orbit: 840 x 854 km, 71.0° (Epoch: 25 November)

Event Time Altitude Azimuth Distance (km) Brightness Sun altitude
Exits shadow 04:37:21 - 330° (NNW) 2,695 6.1 -22.2°
Reaches altitude 10° 04:37:55 10° 331° (NNW) 2,482 5.9 -22.1°
Maximum altitude 04:43:36 67° 54° (NE) 916 4.0 -21.2°
Drops below altitude 10° 04:49:13 10° 137° (SE) 2,459 6.6 -20.4°
Sets 04:51:40 0° 140° (SE) 3,389 7.3 -20.1°
